CAPE
0 0 0 0 0 0 0 0 0 0 0 0 0 0 0 0 0 0 0 0 0 0
0 0 0 0 0 0 0 0 0 0 0 0 0 0 0 0 0 0 0 0 0 0
0 0 0 0 0 0 0 0 0 0 0 0 0 0 0 0 0 0 0 0 0 0
0 0 0 0 0 0 0 0 0 0 0 0 0 0 0 0 0 0 0 0 0 0
0 0 0 0 0 0 0 0 0 0 0 0 0 0 0 0 0 0 0 0 0 0
0 0 0 0 0 0 0 0 0 0 0 0 0 0 0 0 0 0 0 0 0 0
0 0 0 0 0 0 0 0 0 0 0 0 0 0 0 0 0 0 0 0 0 0
0 0 0 0 0 0 0 0 0 0 0 0 0 0 0 0 0 0 0 0 0 0
0 0 0 0 0 0 0 0 0 0 0 0 0 0 3 0 0 0 0 0 0 0
0 0 0 0 0 0 0 0 0 0 0 0 0 0 1 0 0 0 0 0 0 0
0 0 0 0 0 0 0 0 0 0 0 0 0 0 1 0 0 0 0 0 0 0
0 0 0 0 0 0 0 0 0 0 0 0 0 0 0 0 0 0 0 0 0 0
0 0 0 0 0 0 0 0 0 0 0 0 0 0 0 0 0 0 0 0 0 0
0 0 0 0 0 0 0 0 0 0 0 0 0 0 0 0 0 0 0 0 0 0
CIN
0 0 0 0 0 0 0 0 0 0 0 0 0 0 0 0 0 0 0 0 0 0
0 0 0 0 0 0 0 0 0 0 0 0 0 0 0 0 0 0 -1 0 0 0
0 0 0 0 0 0 0 0 0 0 0 0 0 0 0 0 -1 0 0 0 0 0
0 0 0 0 0 0 0 0 0 0 0 0 0 0 0 -1 0 0 0 0 0 0
0 0 0 0 0 0 0 0 0 0 0 0 0 0 0 0 0 0 0 0 0 0
0 0 0 0 0 0 0 0 0 0 0 0 0 0 0 0 -1 0 0 0 0 0
0 0 0 0 0 0 0 0 0 0 0 0 0 0 0 0 0 0 0 0 0 0
0 0 0 0 0 0 0 0 0 0 0 0 0 0 0 0 0 0 0 0 0 0
0 0 0 0 0 0 0 0 0 0 0 0 0 0 0 0 0 0 0 0 0 0
0 0 0 0 0 0 0 0 0 0 0 0 0 0 0 0 0 0 0 0 0 0
0 0 0 0 0 0 0 0 0 0 0 0 0 0 0 0 0 0 0 0 0 0
0 0 0 0 0 0 0 0 0 0 0 0 0 0 0 0 0 0 0 0 0 0
0 0 0 0 0 0 0 0 0 0 0 0 0 0 0 0 0 0 0 0 0 0
0 0 0 0 0 0 0 0 0 0 0 0 0 0 0 0 0 0 0 0 0 0
Wind_Speed
9 9 9 11 9 8 7 7 8 6 6 6 6 5 4 3 3 4 3 4 4 3
10 11 11 10 9 8 7 7 8 7 7 6 6 6 6 4 4 4 5 3 4 3
8 9 11 10 11 9 9 10 9 8 7 7 6 6 6 4 5 6 3 3 3 3
7 7 9 10 9 11 10 10 9 8 7 7 6 6 6 5 7 5 5 4 4 4
7 9 10 10 10 10 11 8 9 8 7 7 7 6 7 6 5 5 6 6 6 5
7 9 8 9 10 10 11 8 8 9 9 8 7 7 6 6 5 5 5 6 6 5
8 9 9 9 10 11 10 10 9 7 7 7 7 7 4 7 6 4 3 4 4 4
7 8 9 9 9 10 10 9 8 9 7 6 7 6 8 6 7 7 4 3 5 5
8 11 11 11 13 12 12 10 11 9 9 8 5 13 15 10 7 6 6 5 4 4
11 12 12 11 11 12 12 11 9 8 9 8 6 15 16 12 5 5 5 5 5 4
11 11 11 11 12 10 10 12 10 9 8 8 7 16 16 12 5 4 4 4 5 5
13 13 13 14 13 11 11 9 9 8 10 10 7 17 17 13 6 5 5 4 4 4
14 15 16 15 14 11 11 10 8 8 9 10 8 17 17 14 6 6 4 3 4 8
13 15 14 13 10 12 11 10 9 9 8 8 9 11 20 20 8 6 5 5 4 4
Wind_Direction
156 156 154 158 156 159 161 157 157 154 157 141 139 140 140 135 133 119 134 114 107 93
160 155 156 155 152 150 147 143 150 146 143 142 147 150 150 142 140 143 147 141 141 139
162 153 151 149 150 146 140 141 146 146 142 144 147 151 135 133 162 164 143 141 156 145
160 143 141 145 143 146 139 145 147 146 143 149 152 159 140 159 174 175 166 155 161 148
154 144 147 147 146 146 145 143 146 144 147 151 156 162 154 159 166 174 174 166 157 173
163 153 154 150 147 145 142 141 145 150 159 157 157 158 159 153 167 178 180 173 168 162
171 163 160 154 149 147 148 150 150 147 146 147 147 145 143 140 162 166 163 154 144 174
173 152 152 156 152 149 154 153 148 150 153 143 154 165 165 163 166 174 166 159 161 176
162 159 168 169 166 161 160 159 161 164 162 160 167 176 179 172 174 174 169 175 181 179
180 176 175 169 162 164 163 160 163 161 161 170 164 185 185 172 169 169 174 171 170 174
183 180 172 171 173 163 163 167 167 170 170 170 177 189 188 175 153 150 167 167 171 168
185 181 176 182 178 169 163 164 171 171 171 176 177 189 187 175 162 171 189 182 169 163
189 188 185 187 179 174 169 169 164 169 182 180 174 190 188 180 165 177 181 184 180 187
195 189 192 183 175 167 163 157 168 175 175 178 176 186 190 189 182 177 176 179 182 186